FW1757 Weather Reports


time (UTC)temp
C
wind
direction
speed
KPH
gust
KPH
rain 1hr
cm
rain 24hr
cm
rain mn
cm
humidity
%
barometer
mb
20260503204550 30 148 0.0 0.0 0.00 0.00 0.00 29 1010.0
20260503204040 30 165 0.0 0.0 0.00 0.00 0.00 29 1010.1
20260503203538 30 67 0.0 0.0 0.00 0.00 0.00 30 1010.1
20260503203036 29 135 0.0 0.0 0.00 0.00 0.00 32 1010.1
20260503202535 29 132 0.0 0.0 0.00 0.00 0.00 32 1010.1
20260503202034 28 117 0.0 0.0 0.00 0.00 0.00 32 1010.1
20260503201532 28 191 0.0 0.0 0.00 0.00 0.00 32 1010.2
20260503201030 28 112 0.0 0.0 0.00 0.00 0.00 33 1010.4
20260503200529 28 109 0.0 0.0 0.00 0.00 0.00 32 1010.4
20260503200029 28 157 0.0 0.0 0.00 0.00 0.00 32 1010.5
20260503195526 28 148 0.0 0.0 0.00 0.00 0.00 32 1010.5
20260503195025 28 113 0.0 0.0 0.00 0.00 0.00 31 1010.6
20260503194525 28 144 0.0 0.0 0.00 0.00 0.00 33 1010.6
20260503194022 28 142 0.0 0.0 0.00 0.00 0.00 35 1010.6
20260503193521 27 156 0.0 0.0 0.00 0.00 0.00 34 1010.8
20260503193027 27 156 0.0 0.0 0.00 0.00 0.00 34 1010.9
20260503192517 27 161 0.0 0.0 0.00 0.00 0.00 35 1011.1
20260503192020 27 66 0.0 0.0 0.00 0.00 0.00 34 1011.1
20260503191516 26 125 0.0 0.0 0.00 0.00 0.00 36 1011.1
20260503191013 26 126 0.0 0.0 0.00 0.00 0.00 37 1011.2
20260503190513 26 351 0.0 0.0 0.00 0.00 0.00 42 1011.3
20260503190013 26 5 0.0 0.0 0.00 0.00 0.00 46 1011.3
20260503185508 25 5 0.0 0.0 0.00 0.00 0.00 46 1011.3
20260503185009 25 351 0.0 0.0 0.00 0.00 0.00 47 1011.5
20260503184508 25 36 0.0 0.0 0.00 0.00 0.00 50 1011.5
20260503184008 24 24 0.0 0.0 0.00 0.00 0.00 52 1011.6
20260503183503 24 24 0.0 0.0 0.00 0.00 0.00 48 1011.6
20260503183001 23 25 0.0 0.0 0.00 0.00 0.00 50 1011.7
20260503182559 23 40 0.0 0.0 0.00 0.00 0.00 51 1011.7
20260503182058 23 41 0.0 0.0 0.00 0.00 0.00 51 1011.8
20260503181559 23 41 0.0 0.0 0.00 0.00 0.00 52 1011.8
20260503181056 22 41 0.0 0.0 0.00 0.00 0.00 53 1011.9
20260503180557 22 10 0.0 0.0 0.00 0.00 0.00 54 1011.8
20260503180053 22 10 0.0 0.0 0.00 0.00 0.00 53 1011.9
20260503175550 22 17 0.0 0.0 0.00 0.00 0.00 56 1012.0
20260503175050 21 38 0.0 0.0 0.00 0.00 0.00 59 1012.0
20260503174548 21 349 0.0 0.0 0.00 0.00 0.00 58 1012.0
20260503174048 21 331 0.0 0.0 0.00 0.00 0.00 57 1012.1
20260503173545 20 269 0.0 0.0 0.00 0.00 0.00 58 1012.1
20260503173109 20 269 0.0 0.0 0.00 0.00 0.00 61 1012.1
20260503172547 20 269 0.0 0.0 0.00 0.00 0.00 60 1012.2
20260503172040 19 269 0.0 0.0 0.00 0.00 0.00 63 1012.2
20260503171541 18 269 0.0 0.0 0.00 0.00 0.00 66 1012.2
20260503171038 18 266 0.0 0.0 0.00 0.00 0.00 65 1012.3
20260503170536 18 266 0.0 0.0 0.00 0.00 0.00 66 1012.3
20260503151004 13 232 0.0 0.0 0.00 0.00 0.00 11 1012.8
20260503150603 13 232 0.0 0.0 0.00 0.00 0.00 9 1012.7
20260503131027 11 232 0.0 0.0 0.00 0.00 0.00 11 1012.3
20260503130525 11 232 0.0 0.0 0.00 0.00 0.00 9 1012.2
20260503110510 12 232 0.0 0.0 0.00 0.00 0.00 32 1012.1
20260503081551 14 232 0.0 0.0 0.00 0.00 0.00 36 1011.8
20260503081051 14 232 0.0 0.0 0.00 0.00 0.00 37 1011.7
20260503080651 14 232 0.0 0.0 0.00 0.00 0.00 38 1011.7
20260503072545 15 232 0.0 0.0 0.00 0.00 0.00 46 1011.7
20260503072043 15 232 0.0 0.0 0.00 0.00 0.00 48 1011.7
20260503071543 15 232 0.0 0.0 0.00 0.00 0.00 49 1011.8
20260503071041 15 232 0.0 0.0 0.00 0.00 0.00 50 1011.8
20260503070541 15 232 0.0 0.0 0.00 0.00 0.00 52 1011.7
20260503055037 17 232 0.0 0.0 0.00 0.00 0.00 63 1011.7
20260503054539 17 233 0.0 0.0 0.00 0.00 0.00 63 1011.7
20260503054037 17 233 0.0 0.0 0.00 0.00 0.00 64 1011.7
20260503053538 17 233 0.0 0.0 0.00 0.00 0.00 64 1011.7
20260503053039 17 233 0.0 0.0 0.00 0.00 0.00 64 1011.7
20260503052537 17 234 0.0 0.0 0.00 0.00 0.00 64 1011.7
20260503052037 17 234 0.0 0.0 0.00 0.00 0.00 64 1011.7
20260503051536 17 234 0.0 0.0 0.00 0.00 0.00 64 1011.6
20260503051037 17 234 0.0 0.0 0.00 0.00 0.00 64 1011.5
20260503050537 17 234 0.0 0.0 0.00 0.00 0.00 64 1011.6
20260503050036 17 234 0.0 0.0 0.00 0.00 0.00 64 1011.5
20260503045538 17 234 0.0 0.0 0.00 0.00 0.00 64 1011.6
20260503045038 17 234 0.0 0.0 0.00 0.00 0.00 64 1011.4
20260503044535 17 234 0.0 0.0 0.00 0.00 0.00 64 1011.5
20260503044034 17 234 0.0 0.0 0.00 0.00 0.00 64 1011.5
20260503043534 17 234 0.0 0.0 0.00 0.00 0.00 65 1011.4
20260503043040 17 277 0.0 0.0 0.00 0.00 0.00 65 1011.4
20260503042534 17 277 0.0 0.0 0.00 0.00 0.00 65 1011.3
20260503042034 17 277 0.0 0.0 0.00 0.00 0.00 65 1011.4
20260503041534 17 281 0.0 0.0 0.00 0.00 0.00 65 1011.3
20260503041033 17 281 0.0 0.0 0.00 0.00 0.00 66 1011.2
20260503040533 18 281 0.0 0.0 0.00 0.00 0.00 66 1011.1
20260503040045 18 281 0.0 0.0 0.00 0.00 0.00 66 1011.1
20260503035533 18 281 0.0 0.0 0.00 0.00 0.00 66 1010.9
20260503035033 18 281 0.0 0.0 0.00 0.00 0.00 65 1010.7
20260503034545 19 281 0.0 0.0 0.00 0.00 0.00 65 1010.6
20260503034032 19 281 0.0 0.0 0.00 0.00 0.00 65 1010.4
20260503033533 19 281 0.0 0.0 0.00 0.00 0.00 64 1010.4
20260503033039 20 281 0.0 0.0 0.00 0.00 0.00 63 1010.2
20260503032532 20 281 0.0 0.0 0.00 0.00 0.00 62 1010.2
20260503032034 20 281 0.0 0.0 0.00 0.00 0.00 61 1010.2
20260503031538 20 281 0.0 0.0 0.00 0.00 0.00 62 1009.9
20260503031032 21 281 0.0 0.0 0.00 0.00 0.00 60 1009.9
20260503030532 21 281 0.0 0.0 0.00 0.00 0.00 59 1009.9
20260503030045 21 281 0.0 0.0 0.00 0.00 0.00 58 1009.9
20260503025531 21 281 0.0 0.0 0.00 0.00 0.00 57 1009.8
20260503025033 22 281 0.0 0.0 0.00 0.00 0.00 56 1009.9
20260503024531 22 281 0.0 0.0 0.00 0.00 0.00 56 1009.8
20260503024031 22 281 0.0 0.0 0.00 0.00 0.00 56 1009.7
20260503023532 22 281 0.0 0.0 0.00 0.00 0.00 54 1009.7
20260503023031 22 281 0.0 0.0 0.00 0.00 0.00 52 1009.6
20260503022530 23 281 0.0 0.0 0.00 0.00 0.00 52 1009.5
20260503022029 23 281 0.0 0.0 0.00 0.00 0.00 52 1009.3
20260503021539 24 281 0.0 0.0 0.00 0.00 0.00 51 1009.3
20260503021030 24 281 0.0 0.0 0.00 0.00 0.00 51 1009.3
20260503020530 25 281 0.0 0.0 0.00 0.00 0.00 48 1009.2
20260503020030 25 281 0.0 0.0 0.00 0.00 0.00 49 1009.1
20260503015531 26 281 0.0 0.0 0.00 0.00 0.00 46 1009.1
20260503015028 26 281 0.0 0.0 0.00 0.00 0.00 46 1009.1
20260503014528 26 281 0.0 0.0 0.00 0.00 0.00 45 1009.0
20260503014028 26 281 0.0 0.0 0.00 0.00 0.00 48 1009.1
20260503013528 26 281 0.0 0.0 0.00 0.00 0.00 47 1009.0
20260503013028 26 281 0.0 0.0 0.00 0.00 0.00 41 1009.1
20260503012528 27 281 0.0 0.0 0.00 0.00 0.00 45 1009.1
20260503012028 27 281 0.0 0.0 0.00 0.00 0.00 41 1009.2
20260503011528 27 281 0.0 0.0 0.00 0.00 0.00 46 1009.2
20260503011027 27 281 0.0 0.0 0.00 0.00 0.00 41 1009.3
20260503010527 27 281 0.0 0.0 0.00 0.00 0.00 40 1009.2
20260503010027 27 281 0.0 0.0 0.00 0.00 0.00 39 1009.2
20260503005526 27 281 0.0 0.0 0.00 0.00 0.00 41 1009.2
20260503005027 27 281 0.0 0.0 0.00 0.00 0.00 45 1009.4
20260503004525 27 281 0.0 0.0 0.00 0.00 0.00 45 1009.3
20260503004029 27 281 0.0 0.0 0.00 0.00 0.00 42 1009.3
20260503003525 27 281 0.0 0.0 0.00 0.00 0.00 40 1009.3
20260503003025 28 281 0.0 0.0 0.00 0.00 0.00 41 1009.4
20260503002525 28 281 0.0 0.0 0.00 0.00 0.00 39 1009.4
20260503002027 28 281 0.0 0.0 0.00 0.00 0.00 40 1009.2
20260503001524 28 281 0.0 0.0 0.00 0.00 0.00 43 1009.3
20260503001025 28 281 0.0 0.0 0.00 0.00 0.00 41 1009.5
20260503000523 28 281 0.0 0.0 0.00 0.00 0.00 41 1009.4
20260503000031 28 281 0.0 0.0 0.00 0.00 0.00 42 1009.5
20260502235523 28 281 0.0 0.0 0.00 0.00 0.00 41 1009.5
20260502235022 28 281 0.0 0.0 0.00 0.00 0.00 41 1009.6
20260502234521 28 281 0.0 0.0 0.00 0.00 0.00 43 1009.7
20260502234021 28 281 0.0 0.0 0.00 0.00 0.00 45 1009.8
20260502233520 28 281 0.0 0.0 0.00 0.00 0.00 43 1009.8
20260502233021 28 281 0.0 0.0 0.00 0.00 0.00 43 1009.9
20260502232519 28 281 0.0 0.0 0.00 0.00 0.00 44 1009.9
20260502232019 28 278 0.0 0.0 0.00 0.00 0.00 44 1009.9
20260502231522 28 259 0.0 0.0 0.00 0.00 0.00 38 1009.9
20260502231021 29 259 0.0 0.0 0.00 0.00 0.00 42 1010.0
20260502230519 29 259 0.0 0.0 0.00 0.00 0.00 42 1010.0
20260502230017 28 296 0.0 0.0 0.00 0.00 0.00 43 1010.1
20260502225516 28 296 0.0 0.0 0.00 0.00 0.00 42 1010.2
20260502225015 28 296 0.0 0.0 0.00 0.00 0.00 41 1010.3
20260502224515 28 296 0.0 0.0 0.00 0.00 0.00 43 1010.3
20260502224015 29 296 0.0 0.0 0.00 0.00 0.00 41 1010.3
20260502223514 30 296 0.0 0.0 0.00 0.00 0.00 39 1010.4
20260502223015 30 305 0.0 0.0 0.00 0.00 0.00 40 1010.5
20260502222512 30 346 0.0 0.0 0.00 0.00 0.00 42 1010.6
20260502222013 30 22 0.0 0.0 0.00 0.00 0.00 39 1010.7
20260502221510 29 17 0.0 0.0 0.00 0.00 0.00 37 1010.8
20260502221009 29 238 0.0 0.0 0.00 0.00 0.00 38 1010.9
20260502220508 28 232 0.0 0.0 0.00 0.00 0.00 35 1010.9
20260502220009 28 321 0.0 0.0 0.00 0.00 0.00 37 1010.9
20260502215504 28 304 0.0 0.0 0.00 0.00 0.00 36 1011.1
20260502215004 27 300 0.0 0.0 0.00 0.00 0.00 41 1011.3
20260502214502 27 300 0.0 0.0 0.00 0.00 0.00 38 1011.3
20260502214101 27 300 0.0 0.0 0.00 0.00 0.00 42 1011.3
20260502213559 26 301 0.0 0.0 0.00 0.00 0.00 42 1011.5
20260502213058 26 302 0.0 0.0 0.00 0.00 0.00 40 1011.4
20260502212557 26 302 0.0 0.0 0.00 0.00 0.00 43 1011.7
20260502212056 25 302 0.0 0.0 0.00 0.00 0.00 40 1011.8
20260502211555 25 302 0.0 0.0 0.00 0.00 0.00 40 1011.9
20260502211058 25 298 0.0 0.0 0.00 0.00 0.00 45 1011.9
20260502210552 25 298 0.0 0.0 0.00 0.00 0.00 47 1011.8
20260502210101 24 298 0.0 0.0 0.00 0.00 0.00 49 1011.9
20260502205551 24 273 0.0 0.0 0.00 0.00 0.00 47 1011.8
20260502205052 24 273 0.0 0.0 0.00 0.00 0.00 48 1011.9